Weather History for KDLS - November, 2013

Change the Weather History Date:

Monday, November 18, 2013

  Actual Average Record
Temperature  
Mean Temperature 44 °F -  
Max Temperature 48 °F 51 °F 66 °F (2003)
Min Temperature 39 °F 36 °F 18 °F (1955)
Degree Days  
Heating Degree Days 22    
Moisture  
Dew Point 41 °F    
Average Humidity 89    
Maximum Humidity 96    
Minimum Humidity 77    
Precipitation  
Precipitation 0.02 in - - ()
Sea Level Pressure  
Sea Level Pressure 29.86 in    
Wind  
Wind Speed 2 mph (ENE)    
Max Wind Speed 5 mph    
Max Gust Speed -    
Visibility 10 miles    
Events Rain    
Averages and records for this station are not official NWS values.
T = Trace of Precipitation, MM = Missing Value Source: NWS Daily Summary

Daily Weather History Graph

Daily Weather History Graph

Search for Another Location

Airport or City:

Trip Planner

Search our weather history database for the weather conditions in past years. The results will help you decide how hot, cold, wet, or windy it might be!

Date:

Astronomy

Nov. 18, 2013 Rise Set
Actual Time 7:08 AM PST 4:30 PM PST
Civil Twilight 6:36 AM PST 5:03 PM PST
Nautical Twilight 5:59 AM PST 5:39 PM PST
Astronomical Twilight 5:24 AM PST 6:14 PM PST
Moon 5:36 PM PST (11/18) 8:02 AM PST (11/18)
Length of Visible Light 10h 27m
Length of Day
9h 22m
Full, 99% of the Moon is Illuminated
Nov 18
Full
Nov 25
Last Quarter
Dec 2
New
Dec 9
First Quarter
Dec 17
Full

Hourly Weather History & Observations

Time (PST) Temp. Windchill Dew Point Humidity Pressure Visibility Wind Dir Wind Speed Gust Speed Precip Events Conditions
12:53 AM 42.1 °F - 39.0 °F 89% 29.96 in 10.0 mi Calm Calm - N/A   Clear
1:53 AM 39.9 °F 36.7 °F 37.9 °F 93% 29.97 in 10.0 mi SE 4.6 mph - N/A   Partly Cloudy
2:53 AM 41.0 °F 38.0 °F 37.9 °F 89% 29.96 in 10.0 mi East 4.6 mph - N/A   Scattered Clouds
3:53 AM 39.9 °F 36.7 °F 37.9 °F 93% 29.96 in 10.0 mi SE 4.6 mph - N/A   Clear
4:53 AM 41.0 °F 39.0 °F 37.9 °F 89% 29.96 in 10.0 mi SE 3.5 mph - N/A   Overcast
5:53 AM 39.9 °F 37.8 °F 37.9 °F 93% 29.96 in 10.0 mi North 3.5 mph - N/A   Overcast
6:53 AM 41.0 °F 39.0 °F 39.0 °F 93% 29.95 in 10.0 mi East 3.5 mph - N/A   Overcast
7:53 AM 39.0 °F 36.8 °F 37.9 °F 96% 29.94 in 10.0 mi North 3.5 mph - N/A   Partly Cloudy
8:53 AM 42.1 °F - 39.9 °F 92% 29.95 in 10.0 mi Calm Calm - N/A   Clear
9:53 AM 44.1 °F - 41.0 °F 89% 29.94 in 10.0 mi Calm Calm - N/A   Scattered Clouds
10:53 AM 46.0 °F - 41.0 °F 83% 29.93 in 10.0 mi Calm Calm - N/A   Clear
11:53 AM 46.9 °F - 42.1 °F 83% 29.89 in 10.0 mi Calm Calm - N/A   Clear
12:53 PM 48.0 °F - 41.0 °F 77% 29.87 in 10.0 mi Calm Calm - N/A   Clear
1:53 PM 48.9 °F - 43.0 °F 80% 29.85 in 10.0 mi Calm Calm - N/A   Clear
2:53 PM 48.0 °F - 43.0 °F 83% 29.82 in 10.0 mi Calm Calm - N/A   Scattered Clouds
3:53 PM 48.0 °F - 43.0 °F 83% 29.81 in 10.0 mi Calm Calm - N/A   Partly Cloudy
4:53 PM 46.0 °F - 43.0 °F 89% 29.80 in 10.0 mi Calm Calm - N/A   Overcast
5:53 PM 46.0 °F - 43.0 °F 89% 29.78 in 10.0 mi Calm Calm - N/A   Overcast
6:53 PM 46.0 °F 44.8 °F 44.1 °F 93% 29.75 in 10.0 mi North 3.5 mph - N/A   Overcast
7:53 PM 46.0 °F - 44.1 °F 93% 29.75 in 7.0 mi Calm Calm - 0.00 in Rain Light Rain
8:53 PM 46.0 °F - 44.1 °F 93% 29.73 in 10.0 mi Calm Calm - 0.02 in   Overcast
9:53 PM 46.0 °F - 44.1 °F 93% 29.71 in 10.0 mi Calm Calm - N/A   Overcast
10:53 PM 46.0 °F 44.8 °F 45.0 °F 96% 29.71 in 10.0 mi NNW 3.5 mph - N/A   Overcast
11:53 PM 46.9 °F - 45.0 °F 93% 29.70 in 10.0 mi Calm Calm - N/A   Overcast